Regional Weather Roundup
Issued by NWS Kansas City/Pleasant Hill, MO

Home | Current Version | Previous Version | Graphics & Text | Print | Product List | Glossary Off
Versions: 1 2 3 4 5 6 7 8 9 10 11 12 13 14 15 16 17 18 19 20 21 22 23 24 25 26 27 28 29 30 31 32 33 34 35 36 37 38 39 40 41 42 43 44 45 46 47 48 49 50

000
ASUS43 KEAX 211810
RWREAX

WEATHER ROUNDUP FOR EASTERN KANSAS AND NORTHWEST MISSOURI
NATIONAL WEATHER SERVICE KANSAS CITY/PLEASANT HILL MO
100 PM CDT MON AUG 21 2017

KSZ040-057-103>105-MOZ028-029-037-043-211900-
...KANSAS CITY METROPOLITAN AREA...

CITY           SKY/WX    TMP DP  RH WIND       PRES   REMARKS
K.C. INTL      PTSUNNY   77  70  79 S5        30.05F
6HR MIN TEMP:  74; 6HR MAX TEMP:  83;

K.C. DOWNTOWN  SUNNY     80  72  76 W3        30.03F
6HR MIN TEMP:  73; 6HR MAX TEMP:  82; 6HR PCP:  0.09;

LEES SUMMIT    MOSUNNY   78  74  87 SE7       30.05F
6HR MIN TEMP:  69; 6HR MAX TEMP:  79; 6HR PCP:  0.30;

OLATHE - IXD   MOSUNNY   85  76  74 S9        30.04F HX  94
6HR MIN TEMP:  74; 6HR MAX TEMP:  86;

OLATHE - OJC   SUNNY     80  76  87 S10       30.05F
6HR MIN TEMP:  70; 6HR MAX TEMP:  82; 6HR PCP:  0.36;

LAWRENCE       PTSUNNY   84  77  79 NE3       30.02F HX  94

$$

MOZ001>008-011>017-020>025-030>033-038>040-044>046-053-054-211900-
...NORTHERN AND CENTRAL MISSOURI...

CITY           SKY/WX    TMP DP  RH WIND       PRES   REMARKS
ST. JOSEPH     LGT RAIN  74  72  93 SE6       30.04S
6HR MIN TEMP:  73; 6HR MAX TEMP:  81; 6HR PCP:  0.03;

MOSBY          CLOUDY    73  66  78 CALM      30.05S
WARRENSBURG    PTSUNNY   79  72  78 E5        30.06F
WHITEMAN AFB   MOSUNNY   81  77  89 CALM      30.06F
6HR MIN TEMP:  71; 6HR MAX TEMP:  82;

CLINTON        SUNNY     84  77  79 SW6       30.07F HX  94
SEDALIA        MOSUNNY   85  78  80 N6        30.09F HX  96
6HR MIN TEMP:  75; 6HR MAX TEMP:  87;

WARSAW         NOT AVBL
CHILLICOTHE      N/A     72  72 100 NE5       30.08F
6HR MIN TEMP:  70; 6HR MAX TEMP:  79; 6HR PCP:  0.51;

KIRKSVILLE     TSTM      72  70  93 W6        30.10R FOG
6HR MIN TEMP:  70; 6HR MAX TEMP:  76; 6HR PCP:  0.91;


$$

MOZ041-047>049-056>058-063>065-088>090-097-211900-
...EASTERN AND SOUTHERN MISSOURI...

CITY           SKY/WX    TMP DP  RH WIND       PRES   REMARKS
ST. LOUIS INTL PTSUNNY   91  75  59 SW10      30.07F HX 101
6HR MIN TEMP:  78; 6HR MAX TEMP:  93;

SPIRIT OF STL  MOSUNNY   91  77  63 SW6       30.05F HX 104
COLUMBIA       CLOUDY    87  75  67 SW9       30.09S HX  96
JEFFERSON CITY PTSUNNY   88  75  65 SW6       30.06F HX  97
ROLLA          SUNNY     86  74  67 S9        30.12F HX  94
OSAGE BEACH    SUNNY     87  73  62 S7        30.09F HX  94
SPRINGFIELD    SUNNY     85  74  69 S10       30.11F HX  92
BRANSON        MOSUNNY   86  70  58 S6        30.14F HX  90
JOPLIN         SUNNY     87  74  64 S9        30.08F HX  95
WEST PLAINS    SUNNY     86  73  65 SW3       30.15F HX  93

$$

IAZ060-094-KSZ022-034>040-054-083-096-NEZ052-066-093-211900-
...KANSAS...SOUTHEAST NEBRASKA AND IOWA...

CITY           SKY/WX    TMP DP  RH WIND       PRES   REMARKS
TOPEKA         CLOUDY    82  77  84 NE5       30.01F HX  90
6HR MIN TEMP:  76; 6HR MAX TEMP:  87; 6HR PCP: TRACE;

MANHATTAN      CLOUDY    79  70  74 S5        30.00F
EMPORIA        MOSUNNY   86  73  65 S14       30.01F HX  93
CHANUTE        SUNNY     86  74  67 S9        30.05F HX  94
WICHITA        MOSUNNY   87  71  58 S10       30.01F HX  93
OMAHA          CLOUDY    78  67  68 SE17      29.96F
LINCOLN        CLOUDY    78  69  73 S10       29.95F
FALLS CITY     LGT RAIN  76  73  91 E9        29.98F
LAMONI         MOSUNNY   76  67  73 S14G23    30.06F
DES MOINES     CLOUDY    73  67  81 S8        29.98F

$$




USA.gov is the U.S. government's official web portal to all federal, state and local government web resources and services.